Location: R�o Medio
(42.4667°N, 3.0167°W)
Time: 01:36:18
(UTC+00:00)

GPS 2-04 Rocket1 - Pass Details

Date: 27 February 2020
Orbit: 418 x 550 km, 35.6° (Epoch: 03 April)

Event Time Altitude Azimuth Distance (km) Brightness Sun altitude
Rises 19:06:46 0° 257° (WSW) 2,699 8.0 -13.3°
Reaches altitude 10° 19:09:11 10° 247° (WSW) 1,814 6.6 -13.8°
Maximum altitude 19:12:56 31° 184° (S) 967 4.1 -14.5°
Enters shadow 19:15:16 18° 134° (SE) 1,365 4.4 -14.9°
